• In Belarus
  • List of Countries
  • For 7 days
  • Water Temperature
  • Satellite Maps
  • Weather Map
  • Weather Widgets
  • user-avatar
    Login

    Hourly Weather Chatsu

    Today, 25 September, Tuesday

    Time Temperature Precipitation Wind Pressure Humidity
    00:00 +27°C° 0 mm 2 mps 731 mmHg 77%
    01:00 +26°C° 0 mm 2 mps 730 mmHg 77%
    02:00 +26°C° 0 mm 2 mps 730 mmHg 78%
    03:00 +26°C° 0 mm 2 mps 730 mmHg 77%
    04:00 +26°C° 0 mm 2 mps 730 mmHg 77%
    05:00 +26°C° 0 mm 1 mps 730 mmHg 81%
    06:00 +27°C° 0 mm 2 mps 731 mmHg 76%
    07:00 +28°C° 0 mm 3 mps 731 mmHg 72%
    08:00 +29°C° 0 mm 3 mps 731 mmHg 67%
    09:00 +32°C° 0 mm 4 mps 731 mmHg 61%
    10:00 +34°C° 0 mm 4 mps 731 mmHg 54%
    11:00 +36°C° 0 mm 5 mps 732 mmHg 44%
    12:00 +36°C° 0 mm 5 mps 731 mmHg 41%
    13:00 +37°C° 0 mm 5 mps 731 mmHg 38%
    14:00 +37°C° 0 mm 5 mps 730 mmHg 35%
    15:00 +36°C° 0 mm 4 mps 730 mmHg 37%
    16:00 +36°C° 0 mm 3 mps 730 mmHg 40%
    17:00 +34°C° 0 mm 2 mps 730 mmHg 49%
    18:00 +32°C° 0 mm 2 mps 730 mmHg 50%
    19:00 +31°C° 0 mm 2 mps 730 mmHg 52%
    20:00 +30°C° 0 mm 3 mps 730 mmHg 54%
    21:00 +30°C° 0 mm 2 mps 730 mmHg 57%
    22:00 +29°C° 0 mm 2 mps 730 mmHg 59%
    23:00 +28°C° 0 mm 1 mps 730 mmHg 62%

    Tomorrow, 26 September, Wednesday

    Time Temperature Precipitation Wind Pressure Humidity
    00:00 +28°C° 0 mm 1 mps 730 mmHg 65%
    01:00 +27°C° 0 mm 1 mps 730 mmHg 68%
    02:00 +25°C° 0 mm 0 mps 730 mmHg 71%
    03:00 +27°C° 0 mm 1 mps 730 mmHg 71%
    04:00 +26°C° 0 mm 1 mps 730 mmHg 71%
    05:00 +26°C° 0 mm 1 mps 730 mmHg 71%
    06:00 +27°C° 0 mm 1 mps 730 mmHg 65%
    07:00 +29°C° 0 mm 2 mps 731 mmHg 60%
    08:00 +30°C° 0 mm 2 mps 731 mmHg 54%
    09:00 +31°C° 0 mm 3 mps 731 mmHg 48%
    10:00 +34°C° 0 mm 3 mps 731 mmHg 42%
    11:00 +35°C° 0 mm 4 mps 732 mmHg 36%
    12:00 +36°C° 0 mm 4 mps 731 mmHg 34%
    13:00 +37°C° 0 mm 4 mps 730 mmHg 31%
    14:00 +38°C° 0 mm 4 mps 730 mmHg 29%
    15:00 +37°C° 0 mm 3 mps 730 mmHg 31%
    16:00 +36°C° 0 mm 3 mps 730 mmHg 34%
    17:00 +36°C° 0 mm 2 mps 729 mmHg 37%
    18:00 +34°C° 0 mm 2 mps 730 mmHg 38%
    19:00 +32°C° 0 mm 2 mps 730 mmHg 39%
    20:00 +31°C° 0 mm 2 mps 730 mmHg 40%
    21:00 +30°C° 0 mm 2 mps 730 mmHg 41%
    22:00 +29°C° 0 mm 2 mps 730 mmHg 42%
    23:00 +29°C° 0 mm 2 mps 730 mmHg 44%

    Day after tomorrow, 27 September, Thursday

    Time Temperature Precipitation Wind Pressure Humidity
    00:00 +28°C° 0 mm 2 mps 730 mmHg 44%
    01:00 +28°C° 0 mm 2 mps 730 mmHg 45%
    02:00 +27°C° 0 mm 2 mps 730 mmHg 45%
    03:00 +27°C° 0 mm 2 mps 730 mmHg 46%
    04:00 +26°C° 0 mm 2 mps 730 mmHg 46%
    05:00 +26°C° 0 mm 2 mps 730 mmHg 47%
    06:00 +27°C° 0 mm 2 mps 730 mmHg 46%
    07:00 +28°C° 0 mm 3 mps 731 mmHg 45%
    08:00 +29°C° 0 mm 3 mps 732 mmHg 43%
    09:00 +31°C° 0 mm 3 mps 732 mmHg 39%
    10:00 +34°C° 0 mm 4 mps 732 mmHg 36%
    11:00 +36°C° 0 mm 4 mps 732 mmHg 32%
    12:00 +36°C° 0 mm 4 mps 731 mmHg 30%
    13:00 +37°C° 0 mm 4 mps 731 mmHg 28%
    14:00 +38°C° 0 mm 4 mps 730 mmHg 27%
    15:00 +37°C° 0 mm 3 mps 730 mmHg 30%
    16:00 +36°C° 0 mm 3 mps 730 mmHg 33%
    17:00 +36°C° 0 mm 2 mps 730 mmHg 36%
    18:00 +34°C° 0 mm 2 mps 730 mmHg 37%
    19:00 +33°C° 0 mm 3 mps 730 mmHg 37%
    20:00 +31°C° 0 mm 3 mps 731 mmHg 38%
    21:00 +30°C° 0 mm 3 mps 731 mmHg 40%
    22:00 +30°C° 0 mm 3 mps 731 mmHg 41%
    23:00 +29°C° 0 mm 3 mps 731 mmHg 42%

    28 September, Friday

    Time Temperature Precipitation Wind Pressure Humidity
    00:00 +28°C° 0 mm 3 mps 730 mmHg 43%
    01:00 +28°C° 0 mm 3 mps 730 mmHg 43%
    02:00 +27°C° 0 mm 3 mps 730 mmHg 44%
    03:00 +27°C° 0 mm 3 mps 730 mmHg 45%
    04:00 +27°C° 0 mm 3 mps 730 mmHg 47%
    05:00 +26°C° 0 mm 2 mps 730 mmHg 48%
    06:00 +27°C° 0 mm 3 mps 731 mmHg 47%
    07:00 +28°C° 0 mm 3 mps 731 mmHg 46%
    08:00 +30°C° 0 mm 4 mps 732 mmHg 45%
    09:00 +32°C° 0 mm 4 mps 732 mmHg 41%
    10:00 +34°C° 0 mm 4 mps 732 mmHg 37%
    11:00 +36°C° 0 mm 5 mps 732 mmHg 33%
    12:00 +37°C° 0 mm 4 mps 732 mmHg 31%
    13:00 +37°C° 0 mm 4 mps 731 mmHg 29%
    14:00 +38°C° 0 mm 4 mps 731 mmHg 27%
    15:00 +37°C° 0 mm 3 mps 731 mmHg 30%
    16:00 +37°C° 0 mm 3 mps 731 mmHg 33%
    17:00 +36°C° 0 mm 2 mps 730 mmHg 35%
    18:00 +35°C° 0 mm 3 mps 731 mmHg 37%
    19:00 +34°C° 0 mm 3 mps 731 mmHg 38%
    20:00 +31°C° 0 mm 3 mps 731 mmHg 39%
    21:00 +31°C° 0 mm 3 mps 731 mmHg 40%
    22:00 +30°C° 0 mm 3 mps 731 mmHg 41%
    23:00 +30°C° 0 mm 3 mps 731 mmHg 42%

    29 September, Saturday

    Time Temperature Precipitation Wind Pressure Humidity
    00:00 +29°C° 0 mm 3 mps 731 mmHg 44%
    01:00 +29°C° 0 mm 3 mps 730 mmHg 45%
    02:00 +28°C° 0 mm 3 mps 730 mmHg 46%
    03:00 +28°C° 0 mm 3 mps 730 mmHg 47%
    04:00 +27°C° 0 mm 3 mps 730 mmHg 48%
    05:00 +27°C° 0 mm 3 mps 731 mmHg 49%
    06:00 +28°C° 0 mm 3 mps 731 mmHg 47%
    07:00 +29°C° 0 mm 4 mps 732 mmHg 45%
    08:00 +29°C° 0 mm 4 mps 732 mmHg 43%
    09:00 +32°C° 0 mm 5 mps 733 mmHg 39%
    10:00 +34°C° 0 mm 5 mps 733 mmHg 35%
    11:00 +36°C° 0 mm 6 mps 733 mmHg 31%
    12:00 +38°C° 0 mm 6 mps 732 mmHg 29%
    13:00 +39°C° 0 mm 6 mps 731 mmHg 28%
    14:00 +40°C° 0 mm 5 mps 731 mmHg 26%
    15:00 +39°C° 0 mm 5 mps 731 mmHg 29%
    16:00 +37°C° 0 mm 4 mps 731 mmHg 32%
    17:00 +36°C° 0 mm 3 mps 730 mmHg 35%
    18:00 +35°C° 0 mm 3 mps 731 mmHg 37%
    19:00 +34°C° 0 mm 3 mps 731 mmHg 38%
    20:00 +31°C° 0 mm 3 mps 731 mmHg 40%
    21:00 +31°C° 0 mm 3 mps 731 mmHg 41%
    22:00 +30°C° 0 mm 3 mps 731 mmHg 42%
    23:00 +29°C° 0 mm 4 mps 731 mmHg 43%

    30 September, Sunday

    Time Temperature Precipitation Wind Pressure Humidity
    00:00 +29°C° 0 mm 3 mps 731 mmHg 43%
    01:00 +29°C° 0 mm 3 mps 730 mmHg 44%
    02:00 +28°C° 0 mm 3 mps 730 mmHg 44%
    03:00 +28°C° 0 mm 3 mps 730 mmHg 45%
    04:00 +28°C° 0 mm 3 mps 730 mmHg 45%
    05:00 +27°C° 0 mm 3 mps 730 mmHg 46%
    06:00 +29°C° 0 mm 4 mps 731 mmHg 43%
    07:00 +30°C° 0 mm 5 mps 731 mmHg 41%
    08:00 +32°C° 0 mm 5 mps 732 mmHg 38%
    09:00 +34°C° 0 mm 6 mps 732 mmHg 34%
    10:00 +36°C° 0 mm 6 mps 732 mmHg 30%
    11:00 +39°C° 0 mm 7 mps 732 mmHg 25%
    12:00 +39°C° 0 mm 6 mps 731 mmHg 25%
    13:00 +40°C° 0 mm 6 mps 730 mmHg 24%
    14:00 +41°C° 0 mm 6 mps 730 mmHg 23%
    15:00 +40°C° 0 mm 5 mps 730 mmHg 26%
    16:00 +38°C° 0 mm 4 mps 730 mmHg 29%
    17:00 +37°C° 0 mm 3 mps 729 mmHg 32%
    18:00 +35°C° 0 mm 3 mps 730 mmHg 33%
    19:00 +34°C° 0 mm 3 mps 730 mmHg 33%
    20:00 +33°C° 0 mm 3 mps 730 mmHg 34%
    21:00 +31°C° 0 mm 3 mps 730 mmHg 35%
    22:00 +31°C° 0 mm 3 mps 730 mmHg 36%
    23:00 +30°C° 0 mm 3 mps 730 mmHg 37%
    Show more